EWG14PJ LGKO-EDDH

Flight info

Callsign EWG14PJ
Flight time 3h 13m
Altitude 36000
Route LARKI UL609 MES UG18 GIKAS UN133 PEREN UL863 EVIVI L863 OKANA DCT TONDO DCT TEKNO/N0450F380 DCT BEGLA DCT LOKVU DCT LEMBI DCT HDO M748 BOLBO DCT SOGMA M748 RARUP RARUP3D
Aircraft A319/M-SDE3FGHIRWY/LB1

Departure

Time 2026-05-08 18:41
Airport Kos International Airport "Ippokratis" (LGKO)

Arrival

Time 2026-05-08 21:55
Airport Hamburg Helmut Schmidt Airport (EDDH)
Time Latitude Longitude Altitude Speed Heading
2026-05-08 18:20 36.80041 27.09002 445 ft 0 kts 57°
2026-05-08 18:35 36.80031 27.08984 430 ft 4 kts 53°
2026-05-08 18:35 36.80014 27.08958 436 ft 4 kts 39°
2026-05-08 18:35 36.79992 27.08943 434 ft 4 kts 350°
2026-05-08 18:35 36.79981 27.08948 428 ft 1 kts 328°
2026-05-08 18:36 36.79980 27.08948 430 ft 0 kts 328°
2026-05-08 18:38 36.79987 27.08943 442 ft 3 kts 331°
2026-05-08 18:39 36.80022 27.08923 445 ft 8 kts 332°
2026-05-08 18:39 36.80078 27.08875 437 ft 12 kts 327°
2026-05-08 18:39 36.80164 27.08809 440 ft 17 kts 329°
2026-05-08 18:39 36.80264 27.08733 445 ft 17 kts 327°
2026-05-08 18:40 36.80335 27.08624 432 ft 17 kts 284°
2026-05-08 18:40 36.80353 27.08498 441 ft 12 kts 274°
2026-05-08 18:40 36.80309 27.08455 427 ft 10 kts 160°
2026-05-08 18:40 36.80247 27.08502 425 ft 12 kts 148°
2026-05-08 18:41 36.80036 27.08665 436 ft 70 kts 148°
2026-05-08 18:41 36.79444 27.09127 442 ft 129 kts 148°
2026-05-08 18:41 36.78571 27.09822 643 ft 155 kts 147°
2026-05-08 18:41 36.77691 27.10511 1303 ft 147 kts 149°
2026-05-08 18:42 36.76808 27.11192 1816 ft 155 kts 150°
2026-05-08 18:42 36.75829 27.11946 2139 ft 176 kts 149°
2026-05-08 18:42 36.74732 27.12824 2420 ft 199 kts 143°
2026-05-08 18:42 36.74010 27.14362 2759 ft 220 kts 99°
2026-05-08 18:43 36.74274 27.16279 3383 ft 229 kts 70°
2026-05-08 18:43 36.74994 27.18059 4157 ft 232 kts 60°
2026-05-08 18:43 36.75918 27.19768 4652 ft 249 kts 44°
2026-05-08 18:43 36.77461 27.20897 4994 ft 270 kts 11°
2026-05-08 18:44 36.79335 27.20800 5640 ft 274 kts 338°
2026-05-08 18:44 36.81034 27.19813 6542 ft 272 kts 330°
2026-05-08 18:44 36.82730 27.18767 7486 ft 272 kts 331°
2026-05-08 18:44 36.84428 27.17736 8412 ft 271 kts 331°
2026-05-08 18:45 36.86129 27.16714 9338 ft 271 kts 331°
2026-05-08 18:45 36.87276 27.16026 9957 ft 271 kts 330°
2026-05-08 18:45 36.89593 27.14629 10554 ft 293 kts 330°
2026-05-08 18:45 36.91493 27.13471 10814 ft 313 kts 331°
2026-05-08 18:46 36.92830 27.12656 11185 ft 319 kts 331°
2026-05-08 18:46 36.94844 27.11430 11847 ft 324 kts 331°
2026-05-08 18:46 36.96889 27.10188 12535 ft 329 kts 331°
2026-05-08 18:46 36.98965 27.08929 13213 ft 334 kts 331°
2026-05-08 18:47 37.01066 27.07655 13884 ft 338 kts 330°
2026-05-08 18:47 37.03192 27.06360 14488 ft 342 kts 330°
2026-05-08 18:47 37.05337 27.05048 15098 ft 345 kts 330°
2026-05-08 18:47 37.07505 27.03721 15700 ft 348 kts 330°
2026-05-08 18:48 37.09693 27.02382 16297 ft 352 kts 330°
2026-05-08 18:48 37.11900 27.01031 16903 ft 355 kts 330°
2026-05-08 18:48 37.14130 26.99666 17498 ft 358 kts 330°
2026-05-08 18:48 37.16383 26.98289 18083 ft 362 kts 330°
2026-05-08 18:49 37.18655 26.96900 18628 ft 366 kts 330°
2026-05-08 18:49 37.20953 26.95492 19128 ft 369 kts 330°
2026-05-08 18:49 37.23267 26.94075 19654 ft 372 kts 330°
2026-05-08 18:49 37.25598 26.92643 20164 ft 375 kts 330°
2026-05-08 18:50 37.27948 26.91199 20683 ft 377 kts 329°
2026-05-08 18:50 37.30319 26.89739 21202 ft 380 kts 329°
2026-05-08 18:50 37.32710 26.88267 21711 ft 383 kts 329°
2026-05-08 18:50 37.35082 26.86804 22209 ft 386 kts 329°
2026-05-08 18:51 37.37536 26.85294 22705 ft 389 kts 329°
2026-05-08 18:51 37.39874 26.83675 23170 ft 388 kts 321°
2026-05-08 18:51 37.41994 26.81581 23632 ft 387 kts 315°
2026-05-08 18:51 37.44040 26.79356 24039 ft 389 kts 315°
2026-05-08 18:52 37.46099 26.77130 24469 ft 391 kts 315°
2026-05-08 18:52 37.48170 26.74901 24868 ft 392 kts 315°
2026-05-08 18:52 37.50246 26.72666 25273 ft 393 kts 315°
2026-05-08 18:52 37.52327 26.70423 25679 ft 394 kts 314°
2026-05-08 18:53 37.54414 26.68168 26063 ft 396 kts 314°
2026-05-08 18:53 37.56507 26.65900 26450 ft 397 kts 314°
2026-05-08 18:53 37.58603 26.63625 26839 ft 398 kts 314°
2026-05-08 18:53 37.60706 26.61343 27226 ft 400 kts 314°
2026-05-08 18:54 37.62819 26.59047 27604 ft 401 kts 314°
2026-05-08 18:54 37.64942 26.56742 27978 ft 403 kts 314°
2026-05-08 18:54 37.67073 26.54426 28354 ft 405 kts 314°
2026-05-08 18:54 37.69209 26.52105 28707 ft 406 kts 314°
2026-05-08 18:55 37.73509 26.47435 29425 ft 409 kts 313°
2026-05-08 18:55 37.75671 26.45085 29762 ft 410 kts 313°
2026-05-08 18:55 37.77815 26.42751 30094 ft 411 kts 313°
2026-05-08 18:56 37.79994 26.40379 30375 ft 413 kts 313°
2026-05-08 18:56 37.82179 26.38004 30654 ft 414 kts 313°
2026-05-08 18:56 37.84370 26.35618 30916 ft 415 kts 313°
2026-05-08 18:56 37.86564 26.33220 31181 ft 417 kts 313°
2026-05-08 18:57 37.88758 26.30816 31491 ft 416 kts 313°
2026-05-08 18:57 37.90211 26.29221 31737 ft 415 kts 313°
2026-05-08 18:57 37.93124 26.26020 32232 ft 413 kts 313°
2026-05-08 18:57 37.95263 26.23668 32595 ft 412 kts 313°
2026-05-08 18:58 37.97426 26.21289 32966 ft 411 kts 313°
2026-05-08 18:58 37.99583 26.18917 33327 ft 410 kts 313°
2026-05-08 18:58 38.01733 26.16550 33686 ft 408 kts 313°
2026-05-08 18:58 38.03873 26.14188 34059 ft 407 kts 313°
2026-05-08 18:59 38.06008 26.11832 34383 ft 406 kts 313°
2026-05-08 18:59 38.08140 26.09480 34685 ft 405 kts 312°
2026-05-08 18:59 38.10270 26.07126 34965 ft 405 kts 312°
2026-05-08 18:59 38.12394 26.04771 35089 ft 405 kts 312°
2026-05-08 19:00 38.14517 26.02417 35113 ft 404 kts 312°
2026-05-08 19:00 38.18761 25.97718 35115 ft 403 kts 312°
2026-05-08 19:01 38.22961 25.93052 35108 ft 403 kts 312°
2026-05-08 19:01 38.27234 25.88422 35106 ft 405 kts 314°
2026-05-08 19:02 38.31728 25.84061 35109 ft 407 kts 316°
2026-05-08 19:02 38.36274 25.79765 35108 ft 406 kts 316°
2026-05-08 19:03 38.40786 25.75423 35105 ft 406 kts 315°
2026-05-08 19:03 38.45264 25.71033 35095 ft 405 kts 315°
2026-05-08 19:04 38.49743 25.66633 35093 ft 405 kts 315°
2026-05-08 19:04 38.54191 25.62274 35092 ft 405 kts 315°
2026-05-08 19:05 38.58667 25.57888 35093 ft 404 kts 315°
2026-05-08 19:05 38.63128 25.53505 35089 ft 404 kts 315°
2026-05-08 19:06 38.67589 25.49117 35084 ft 404 kts 315°
2026-05-08 19:06 38.72044 25.44713 35081 ft 403 kts 314°
2026-05-08 19:07 38.76455 25.40344 35083 ft 403 kts 314°
2026-05-08 19:07 38.80906 25.35939 35077 ft 403 kts 314°
2026-05-08 19:08 38.85350 25.31551 35073 ft 403 kts 314°
2026-05-08 19:08 38.89787 25.27151 35072 ft 403 kts 314°
2026-05-08 19:09 38.94223 25.22744 35076 ft 403 kts 314°
2026-05-08 19:09 38.98662 25.18326 35074 ft 404 kts 314°
2026-05-08 19:10 39.03100 25.13897 35075 ft 404 kts 314°
2026-05-08 19:10 39.07519 25.09476 35072 ft 405 kts 314°
2026-05-08 19:11 39.11981 25.05006 35074 ft 406 kts 315°
2026-05-08 19:11 39.16448 25.00529 35074 ft 407 kts 315°
2026-05-08 19:12 39.20935 24.96023 35073 ft 409 kts 315°
2026-05-08 19:12 39.25439 24.91496 35072 ft 411 kts 315°
2026-05-08 19:13 39.29929 24.86985 35071 ft 412 kts 315°
2026-05-08 19:13 39.34459 24.82418 35070 ft 413 kts 316°
2026-05-08 19:14 39.39006 24.77822 35071 ft 415 kts 316°
2026-05-08 19:14 39.43558 24.73214 35072 ft 416 kts 316°
2026-05-08 19:15 39.48125 24.68585 35072 ft 417 kts 316°
2026-05-08 19:15 39.53130 24.64715 35071 ft 427 kts 328°
2026-05-08 19:16 39.58490 24.61368 35071 ft 427 kts 328°
2026-05-08 19:16 39.63835 24.58014 35073 ft 428 kts 328°
2026-05-08 19:17 39.69199 24.54635 35072 ft 428 kts 328°
2026-05-08 19:17 39.74567 24.51247 35071 ft 429 kts 329°
2026-05-08 19:18 39.79936 24.47860 35072 ft 429 kts 329°
2026-05-08 19:18 39.85305 24.44462 35080 ft 429 kts 329°
2026-05-08 19:19 39.90688 24.41046 35073 ft 429 kts 329°
2026-05-08 19:19 39.96066 24.37637 35079 ft 430 kts 329°
2026-05-08 19:20 40.01433 24.34231 35087 ft 430 kts 330°
2026-05-08 19:20 40.06823 24.30801 35077 ft 431 kts 330°
2026-05-08 19:21 40.12220 24.27350 35084 ft 431 kts 330°
2026-05-08 19:21 40.17616 24.23897 35085 ft 432 kts 330°
2026-05-08 19:22 40.22983 24.20461 35083 ft 432 kts 330°
2026-05-08 19:22 40.28382 24.16998 35085 ft 432 kts 330°
2026-05-08 19:23 40.32907 24.14092 35088 ft 432 kts 330°
2026-05-08 19:23 40.36494 24.11783 35386 ft 433 kts 330°
2026-05-08 19:23 40.38317 24.10606 35561 ft 433 kts 330°
2026-05-08 19:23 40.41023 24.08859 35804 ft 433 kts 330°
2026-05-08 19:24 40.43727 24.07112 36039 ft 433 kts 330°
2026-05-08 19:24 40.46434 24.05362 36268 ft 433 kts 330°
2026-05-08 19:24 40.49135 24.03615 36481 ft 433 kts 330°
2026-05-08 19:24 40.51841 24.01863 36691 ft 433 kts 330°
2026-05-08 19:25 40.54550 24.00110 36900 ft 433 kts 330°
2026-05-08 19:25 40.57256 23.98355 37059 ft 434 kts 330°
2026-05-08 19:25 40.59959 23.96599 37092 ft 433 kts 330°
2026-05-08 19:26 40.65392 23.93145 37094 ft 433 kts 331°
2026-05-08 19:26 40.70844 23.89754 37094 ft 433 kts 331°
2026-05-08 19:27 40.76297 23.86352 37093 ft 434 kts 331°
2026-05-08 19:27 40.81747 23.82923 37095 ft 434 kts 331°
2026-05-08 19:28 40.87161 23.79500 37090 ft 434 kts 331°
2026-05-08 19:28 40.92600 23.76049 37092 ft 434 kts 331°
2026-05-08 19:29 40.98051 23.72586 37092 ft 435 kts 331°
2026-05-08 19:29 41.03507 23.69124 37093 ft 435 kts 331°
2026-05-08 19:30 41.08960 23.65662 37094 ft 435 kts 331°
2026-05-08 19:30 41.14418 23.62179 37095 ft 435 kts 331°
2026-05-08 19:31 41.19865 23.58691 37089 ft 435 kts 331°
2026-05-08 19:31 41.25320 23.55208 37089 ft 435 kts 331°
2026-05-08 19:32 41.30770 23.51703 37091 ft 435 kts 331°
2026-05-08 19:32 41.36221 23.48183 37094 ft 436 kts 331°
2026-05-08 19:33 41.41683 23.44661 37096 ft 436 kts 332°
2026-05-08 19:33 41.47135 23.41128 37094 ft 436 kts 331°
2026-05-08 19:34 41.52583 23.37564 37096 ft 436 kts 331°
2026-05-08 19:34 41.58029 23.33990 37094 ft 436 kts 331°
2026-05-08 19:35 41.63484 23.30420 37095 ft 436 kts 331°
2026-05-08 19:35 41.68944 23.26852 37094 ft 437 kts 331°
2026-05-08 19:36 41.74401 23.23273 37093 ft 437 kts 331°
2026-05-08 19:36 41.79858 23.19666 37096 ft 437 kts 331°
2026-05-08 19:37 41.85318 23.16061 37097 ft 438 kts 331°
2026-05-08 19:37 41.90787 23.12456 37095 ft 438 kts 331°
2026-05-08 19:38 41.96256 23.08837 37094 ft 438 kts 331°
2026-05-08 19:38 42.01720 23.05212 37090 ft 438 kts 331°
2026-05-08 19:39 42.07190 23.01579 37093 ft 438 kts 331°
2026-05-08 19:39 42.12653 22.97934 37087 ft 438 kts 331°
2026-05-08 19:40 42.18120 22.94284 37087 ft 438 kts 332°
2026-05-08 19:40 42.23575 22.90642 37084 ft 438 kts 332°
2026-05-08 19:41 42.29006 22.87013 37080 ft 438 kts 332°
2026-05-08 19:41 42.34461 22.83356 37074 ft 438 kts 332°
2026-05-08 19:42 42.39915 22.79676 37083 ft 437 kts 332°
2026-05-08 19:42 42.45366 22.76005 37079 ft 437 kts 332°
2026-05-08 19:43 42.50816 22.72321 37088 ft 438 kts 332°
2026-05-08 19:43 42.56262 22.68631 37092 ft 438 kts 331°
2026-05-08 19:44 42.61706 22.64933 37077 ft 438 kts 331°
2026-05-08 19:44 42.67155 22.61242 37080 ft 437 kts 332°
2026-05-08 19:45 42.72602 22.57546 37088 ft 437 kts 331°
2026-05-08 19:45 42.78039 22.53834 37085 ft 437 kts 331°
2026-05-08 19:46 42.83476 22.50119 37074 ft 437 kts 331°
2026-05-08 19:46 42.91103 22.43388 37083 ft 435 kts 324°
2026-05-08 19:47 42.96127 22.38775 37087 ft 436 kts 324°
2026-05-08 19:47 43.01159 22.34151 37086 ft 436 kts 324°
2026-05-08 19:48 43.06182 22.29513 37075 ft 436 kts 324°
2026-05-08 19:48 43.11204 22.24857 37082 ft 436 kts 324°
2026-05-08 19:49 43.16230 22.20198 37079 ft 436 kts 324°
2026-05-08 19:49 43.21254 22.15525 37085 ft 436 kts 324°
2026-05-08 19:50 43.26280 22.10846 37087 ft 437 kts 324°
2026-05-08 19:50 43.31311 22.06163 37093 ft 437 kts 324°
2026-05-08 19:51 43.36338 22.01466 37098 ft 437 kts 324°
2026-05-08 19:51 43.41366 21.96755 37098 ft 437 kts 324°
2026-05-08 19:52 43.46396 21.92036 37094 ft 437 kts 324°
2026-05-08 19:52 43.51424 21.87310 37092 ft 437 kts 324°
2026-05-08 19:53 43.56454 21.82579 37088 ft 438 kts 324°
2026-05-08 19:53 43.61482 21.77832 37079 ft 438 kts 324°
2026-05-08 19:54 43.66471 21.73110 37070 ft 438 kts 323°
2026-05-08 19:54 43.71521 21.68316 37069 ft 438 kts 323°
2026-05-08 19:55 43.76506 21.63575 37070 ft 437 kts 323°
2026-05-08 19:55 43.81525 21.58797 37068 ft 437 kts 323°
2026-05-08 19:56 43.86538 21.54016 37067 ft 437 kts 323°
2026-05-08 19:56 43.91555 21.49228 37067 ft 437 kts 323°
2026-05-08 19:57 43.96560 21.44436 37063 ft 437 kts 323°
2026-05-08 19:57 44.01569 21.39625 37063 ft 437 kts 323°
2026-05-08 19:58 44.06568 21.34810 37059 ft 437 kts 323°
2026-05-08 19:58 44.11572 21.29994 37053 ft 437 kts 323°
2026-05-08 19:59 44.16571 21.25175 37048 ft 437 kts 323°
2026-05-08 19:59 44.21572 21.20323 37046 ft 438 kts 323°
2026-05-08 20:00 44.26574 21.15465 37046 ft 438 kts 323°
2026-05-08 20:00 44.30728 21.11423 37046 ft 438 kts 323°
2026-05-08 20:01 44.35735 21.06553 37048 ft 438 kts 323°
2026-05-08 20:01 44.40743 21.01676 37067 ft 438 kts 323°
2026-05-08 20:02 44.45744 20.96782 37047 ft 438 kts 322°
2026-05-08 20:02 44.50734 20.91890 37050 ft 438 kts 322°
2026-05-08 20:03 44.55721 20.86988 37048 ft 438 kts 322°
2026-05-08 20:03 44.60678 20.82106 37043 ft 437 kts 322°
2026-05-08 20:04 44.65665 20.77189 37044 ft 437 kts 322°
2026-05-08 20:04 44.70643 20.72273 37040 ft 437 kts 322°
2026-05-08 20:05 44.75615 20.67349 37036 ft 437 kts 322°
2026-05-08 20:05 44.80592 20.62405 37030 ft 437 kts 322°
2026-05-08 20:06 44.85550 20.57469 37031 ft 437 kts 322°
2026-05-08 20:06 44.90516 20.52521 37030 ft 437 kts 322°
2026-05-08 20:07 44.95483 20.47562 37032 ft 437 kts 322°
2026-05-08 20:07 45.00424 20.42617 37031 ft 437 kts 322°
2026-05-08 20:08 45.05396 20.37636 37032 ft 437 kts 322°
2026-05-08 20:08 45.10363 20.32639 37034 ft 438 kts 321°
2026-05-08 20:09 45.15325 20.27624 37041 ft 438 kts 321°
2026-05-08 20:09 45.20281 20.22606 37041 ft 438 kts 321°
2026-05-08 20:10 45.25242 20.17584 37048 ft 438 kts 321°
2026-05-08 20:10 45.30171 20.12584 37052 ft 438 kts 321°
2026-05-08 20:11 45.35149 20.07541 37054 ft 438 kts 321°
2026-05-08 20:11 45.40116 20.02497 37055 ft 438 kts 321°
2026-05-08 20:12 45.45085 19.97410 37057 ft 439 kts 321°
2026-05-08 20:12 45.50011 19.92353 37058 ft 439 kts 321°
2026-05-08 20:13 45.54989 19.87252 37061 ft 439 kts 321°
2026-05-08 20:13 45.59958 19.82146 37065 ft 439 kts 321°
2026-05-08 20:14 45.64919 19.77041 37063 ft 439 kts 321°
2026-05-08 20:14 45.69845 19.71959 37062 ft 439 kts 321°
2026-05-08 20:15 45.74793 19.66824 37061 ft 439 kts 321°
2026-05-08 20:15 45.79736 19.61690 37057 ft 438 kts 321°
2026-05-08 20:16 45.84673 19.56564 37057 ft 438 kts 321°
2026-05-08 20:16 45.89619 19.51428 37054 ft 438 kts 320°
2026-05-08 20:17 45.94558 19.46279 37054 ft 439 kts 320°
2026-05-08 20:17 45.99498 19.41100 37059 ft 439 kts 320°
2026-05-08 20:18 46.04426 19.35910 37061 ft 438 kts 320°
2026-05-08 20:18 46.09191 19.30518 37060 ft 437 kts 317°
2026-05-08 20:19 46.13835 19.24872 37059 ft 436 kts 316°
2026-05-08 20:19 46.18487 19.19204 37056 ft 436 kts 316°
2026-05-08 20:20 46.23165 19.13586 37058 ft 437 kts 316°
2026-05-08 20:20 46.27837 19.08007 37059 ft 437 kts 316°
2026-05-08 20:21 46.32521 19.02391 37062 ft 437 kts 316°
2026-05-08 20:21 46.37175 18.96786 37060 ft 436 kts 316°
2026-05-08 20:22 46.41844 18.91148 37059 ft 436 kts 316°
2026-05-08 20:22 46.45721 18.86447 37061 ft 436 kts 316°
2026-05-08 20:23 46.51172 18.79830 37065 ft 437 kts 316°
2026-05-08 20:23 46.55838 18.74154 37069 ft 437 kts 316°
2026-05-08 20:24 46.60498 18.68483 37067 ft 437 kts 316°
2026-05-08 20:24 46.65158 18.62801 37077 ft 436 kts 316°
2026-05-08 20:25 46.69802 18.57111 37071 ft 436 kts 316°
2026-05-08 20:25 46.74413 18.51444 37071 ft 436 kts 316°
2026-05-08 20:26 46.79073 18.45721 37073 ft 436 kts 316°
2026-05-08 20:26 46.83720 18.40001 37070 ft 436 kts 316°
2026-05-08 20:27 46.88326 18.34303 37073 ft 436 kts 316°
2026-05-08 20:27 46.92953 18.28571 37077 ft 435 kts 316°
2026-05-08 20:28 46.97577 18.22835 37078 ft 435 kts 316°
2026-05-08 20:28 47.02202 18.17084 37084 ft 435 kts 316°
2026-05-08 20:29 47.06813 18.11332 37087 ft 435 kts 316°
2026-05-08 20:29 47.11384 18.05609 37093 ft 434 kts 316°
2026-05-08 20:30 47.16006 17.99808 37092 ft 434 kts 316°
2026-05-08 20:30 47.20560 17.94079 37092 ft 434 kts 316°
2026-05-08 20:31 47.25175 17.88273 37096 ft 433 kts 316°
2026-05-08 20:31 47.29753 17.82501 37099 ft 433 kts 316°
2026-05-08 20:32 47.34327 17.76718 37099 ft 433 kts 315°
2026-05-08 20:32 47.38893 17.70926 37102 ft 433 kts 315°
2026-05-08 20:33 47.43461 17.65119 37102 ft 433 kts 315°
2026-05-08 20:33 47.47995 17.59338 37102 ft 433 kts 315°
2026-05-08 20:34 47.52556 17.53514 37101 ft 433 kts 315°
2026-05-08 20:35 47.59395 17.44753 37099 ft 433 kts 315°
2026-05-08 20:35 47.63931 17.38859 37096 ft 433 kts 314°
2026-05-08 20:36 47.68292 17.32727 37101 ft 432 kts 311°
2026-05-08 20:36 47.72581 17.26479 37100 ft 432 kts 311°
2026-05-08 20:37 47.76898 17.20264 37100 ft 432 kts 312°
2026-05-08 20:37 47.81235 17.14076 37100 ft 432 kts 312°
2026-05-08 20:38 47.85800 17.08205 37106 ft 435 kts 317°
2026-05-08 20:38 47.89760 17.03488 37106 ft 435 kts 317°
2026-05-08 20:39 47.94448 16.97874 37104 ft 435 kts 317°
2026-05-08 20:39 47.99165 16.92213 37106 ft 435 kts 317°
2026-05-08 20:40 48.03876 16.86544 37116 ft 435 kts 317°
2026-05-08 20:40 48.08582 16.80858 37124 ft 435 kts 316°
2026-05-08 20:41 48.13289 16.75161 37133 ft 435 kts 316°
2026-05-08 20:41 48.17993 16.69457 37128 ft 435 kts 316°
2026-05-08 20:42 48.22691 16.63755 37126 ft 435 kts 316°
2026-05-08 20:42 48.27387 16.58024 37128 ft 435 kts 316°
2026-05-08 20:43 48.32081 16.52278 37124 ft 435 kts 316°
2026-05-08 20:43 48.36771 16.46513 37119 ft 435 kts 316°
2026-05-08 20:44 48.41467 16.40760 37119 ft 435 kts 316°
2026-05-08 20:44 48.46162 16.34987 37113 ft 435 kts 316°
2026-05-08 20:45 48.50849 16.29205 37116 ft 435 kts 316°
2026-05-08 20:45 48.55534 16.23417 37113 ft 436 kts 316°
2026-05-08 20:46 48.60224 16.17600 37110 ft 436 kts 316°
2026-05-08 20:46 48.64911 16.11776 37114 ft 436 kts 316°
2026-05-08 20:47 48.69595 16.05943 37115 ft 436 kts 316°
2026-05-08 20:47 48.74278 16.00080 37122 ft 437 kts 316°
2026-05-08 20:48 48.78963 15.94193 37130 ft 437 kts 316°
2026-05-08 20:48 48.83639 15.88309 37132 ft 436 kts 316°
2026-05-08 20:49 48.88626 15.83034 37130 ft 443 kts 330°
2026-05-08 20:49 48.94428 15.79676 37135 ft 447 kts 336°
2026-05-08 20:50 49.00275 15.76466 37137 ft 447 kts 336°
2026-05-08 20:50 49.06123 15.73254 37140 ft 446 kts 336°
2026-05-08 20:51 49.11960 15.70029 37143 ft 446 kts 336°
2026-05-08 20:51 49.17795 15.66780 37146 ft 446 kts 335°
2026-05-08 20:52 49.23633 15.63525 37148 ft 446 kts 335°
2026-05-08 20:52 49.29465 15.60275 37150 ft 446 kts 336°
2026-05-08 20:53 49.35257 15.57049 37157 ft 446 kts 335°
2026-05-08 20:53 49.41081 15.53782 37159 ft 445 kts 335°
2026-05-08 20:54 49.46902 15.50507 37158 ft 445 kts 335°
2026-05-08 20:54 49.52719 15.47230 37160 ft 445 kts 335°
2026-05-08 20:55 49.58529 15.43952 37163 ft 445 kts 336°
2026-05-08 20:55 49.64329 15.40666 37168 ft 444 kts 336°
2026-05-08 20:56 49.70125 15.37373 37166 ft 444 kts 336°
2026-05-08 20:56 49.75919 15.34076 37166 ft 443 kts 336°
2026-05-08 20:57 49.81715 15.30776 37168 ft 443 kts 336°
2026-05-08 20:57 49.87509 15.27463 37164 ft 443 kts 336°
2026-05-08 20:58 49.93295 15.24141 37164 ft 443 kts 336°
2026-05-08 20:58 49.99085 15.20799 37166 ft 444 kts 336°
2026-05-08 20:59 50.04873 15.17459 37167 ft 444 kts 336°
2026-05-08 20:59 50.10661 15.14124 37169 ft 443 kts 336°
2026-05-08 21:00 50.16446 15.10776 37171 ft 443 kts 336°
2026-05-08 21:00 50.22226 15.07415 37168 ft 443 kts 336°
2026-05-08 21:01 50.28006 15.04051 37173 ft 443 kts 336°
2026-05-08 21:01 50.33778 15.00674 37173 ft 443 kts 336°
2026-05-08 21:02 50.39553 14.97296 37176 ft 443 kts 336°
2026-05-08 21:02 50.45318 14.93914 37181 ft 443 kts 336°
2026-05-08 21:03 50.51086 14.90511 37187 ft 443 kts 336°
2026-05-08 21:03 50.56505 14.86112 37186 ft 436 kts 320°
2026-05-08 21:04 50.61103 14.80017 37187 ft 435 kts 317°
2026-05-08 21:04 50.65702 14.73833 37189 ft 435 kts 317°
2026-05-08 21:05 50.70300 14.67633 37194 ft 435 kts 317°
2026-05-08 21:05 50.74918 14.61366 37197 ft 435 kts 316°
2026-05-08 21:06 50.79500 14.55128 37202 ft 435 kts 316°
2026-05-08 21:06 50.84047 14.48919 37202 ft 435 kts 316°
2026-05-08 21:07 50.88644 14.42615 37205 ft 434 kts 316°
2026-05-08 21:07 50.93189 14.36380 37208 ft 434 kts 316°
2026-05-08 21:08 50.97758 14.30106 37209 ft 434 kts 316°
2026-05-08 21:08 51.02332 14.23833 37210 ft 434 kts 316°
2026-05-08 21:09 51.06904 14.17545 37210 ft 434 kts 316°
2026-05-08 21:09 51.11455 14.11241 37211 ft 434 kts 316°
2026-05-08 21:10 51.16003 14.04927 37212 ft 434 kts 316°
2026-05-08 21:10 51.20550 13.98610 37210 ft 433 kts 316°
2026-05-08 21:11 51.25096 13.92279 37208 ft 433 kts 316°
2026-05-08 21:11 51.29636 13.85941 37208 ft 433 kts 316°
2026-05-08 21:12 51.34169 13.79592 37212 ft 433 kts 316°
2026-05-08 21:12 51.38701 13.73227 37206 ft 433 kts 316°
2026-05-08 21:13 51.43197 13.66887 37207 ft 433 kts 316°
2026-05-08 21:13 51.47711 13.60500 37218 ft 433 kts 316°
2026-05-08 21:14 51.52235 13.54100 37212 ft 433 kts 316°
2026-05-08 21:14 51.56752 13.47682 37215 ft 433 kts 316°
2026-05-08 21:15 51.61264 13.41251 37211 ft 433 kts 316°
2026-05-08 21:15 51.65769 13.34814 37207 ft 433 kts 316°
2026-05-08 21:16 51.69527 13.29446 37209 ft 433 kts 316°
2026-05-08 21:16 51.74762 13.21911 37215 ft 433 kts 316°
2026-05-08 21:17 51.78505 13.16502 37211 ft 433 kts 316°
2026-05-08 21:17 51.83003 13.10016 37214 ft 433 kts 316°
2026-05-08 21:18 51.87498 13.03526 37214 ft 433 kts 316°
2026-05-08 21:18 51.91989 12.97008 37210 ft 432 kts 316°
2026-05-08 21:19 51.96443 12.90523 37210 ft 432 kts 316°
2026-05-08 21:19 52.00912 12.83993 37210 ft 432 kts 316°
2026-05-08 21:20 52.05383 12.77438 37208 ft 432 kts 316°
2026-05-08 21:20 52.09842 12.70891 37213 ft 432 kts 315°
2026-05-08 21:21 52.14294 12.64325 37212 ft 432 kts 315°
2026-05-08 21:21 52.18747 12.57753 37214 ft 432 kts 315°
2026-05-08 21:22 52.23192 12.51168 37212 ft 432 kts 315°
2026-05-08 21:22 52.27642 12.44564 37212 ft 432 kts 315°
2026-05-08 21:23 52.32085 12.37951 37213 ft 431 kts 315°
2026-05-08 21:23 52.36514 12.31335 37213 ft 431 kts 315°
2026-05-08 21:24 52.40909 12.24740 37210 ft 431 kts 315°
2026-05-08 21:24 52.45328 12.18106 37208 ft 431 kts 315°
2026-05-08 21:25 52.49750 12.11453 37053 ft 430 kts 315°
2026-05-08 21:25 52.51952 12.08131 36415 ft 429 kts 315°
2026-05-08 21:25 52.54149 12.04807 35769 ft 429 kts 315°
2026-05-08 21:25 52.56342 12.01483 35138 ft 428 kts 315°
2026-05-08 21:26 52.58533 11.98155 34511 ft 428 kts 315°
2026-05-08 21:26 52.60716 11.94834 33892 ft 426 kts 315°
2026-05-08 21:26 52.62884 11.91539 33343 ft 422 kts 316°
2026-05-08 21:26 52.65154 11.88510 32794 ft 418 kts 321°
2026-05-08 21:27 52.67459 11.85616 32248 ft 415 kts 321°
2026-05-08 21:27 52.69741 11.82739 31721 ft 411 kts 321°
2026-05-08 21:27 52.71994 11.79881 31205 ft 407 kts 320°
2026-05-08 21:27 52.74236 11.77064 30710 ft 403 kts 321°
2026-05-08 21:28 52.76487 11.74340 30209 ft 400 kts 322°
2026-05-08 21:28 52.78744 11.71674 29631 ft 397 kts 323°
2026-05-08 21:28 52.80989 11.69054 29066 ft 393 kts 323°
2026-05-08 21:28 52.83211 11.66457 28525 ft 389 kts 323°
2026-05-08 21:29 52.85405 11.63875 28002 ft 386 kts 322°
2026-05-08 21:29 52.87584 11.61291 27492 ft 383 kts 322°
2026-05-08 21:29 52.89732 11.58724 27003 ft 379 kts 322°
2026-05-08 21:29 52.91859 11.56172 26533 ft 376 kts 322°
2026-05-08 21:30 52.93968 11.53639 26078 ft 373 kts 322°
2026-05-08 21:30 52.96066 11.51120 25634 ft 371 kts 322°
2026-05-08 21:30 52.98148 11.48621 25203 ft 368 kts 322°
2026-05-08 21:30 53.00212 11.46139 24770 ft 365 kts 322°
2026-05-08 21:31 53.02262 11.43672 24342 ft 363 kts 322°
2026-05-08 21:31 53.04296 11.41226 23909 ft 360 kts 322°
2026-05-08 21:31 53.06323 11.38785 23425 ft 357 kts 322°
2026-05-08 21:31 53.08305 11.36392 22941 ft 355 kts 322°
2026-05-08 21:32 53.10294 11.33983 22458 ft 352 kts 322°
2026-05-08 21:32 53.12269 11.31590 22196 ft 351 kts 322°
2026-05-08 21:32 53.14245 11.29195 22207 ft 352 kts 322°
2026-05-08 21:32 53.16223 11.26798 22209 ft 352 kts 322°
2026-05-08 21:33 53.18212 11.24383 21573 ft 357 kts 322°
2026-05-08 21:33 53.20229 11.21932 21063 ft 357 kts 322°
2026-05-08 21:33 53.22224 11.19501 20635 ft 353 kts 322°
2026-05-08 21:33 53.24194 11.17096 20193 ft 350 kts 322°
2026-05-08 21:34 53.26156 11.14698 19752 ft 347 kts 322°
2026-05-08 21:34 53.28098 11.12324 19320 ft 344 kts 322°
2026-05-08 21:34 53.30027 11.09963 18891 ft 342 kts 322°
2026-05-08 21:34 53.31944 11.07615 18454 ft 340 kts 323°
2026-05-08 21:35 53.33841 11.05291 17996 ft 337 kts 323°
2026-05-08 21:35 53.35704 11.03008 17589 ft 334 kts 323°
2026-05-08 21:35 53.37574 11.00715 17177 ft 330 kts 323°
2026-05-08 21:35 53.39421 10.98450 16777 ft 328 kts 323°
2026-05-08 21:36 53.41255 10.96191 16378 ft 325 kts 323°
2026-05-08 21:36 53.43074 10.93945 15984 ft 323 kts 323°
2026-05-08 21:36 53.44878 10.91716 15597 ft 321 kts 323°
2026-05-08 21:36 53.46680 10.89490 15200 ft 320 kts 323°
2026-05-08 21:37 53.48450 10.87298 14818 ft 318 kts 323°
2026-05-08 21:37 53.50230 10.85092 14427 ft 317 kts 323°
2026-05-08 21:37 53.52001 10.82893 14036 ft 316 kts 323°
2026-05-08 21:37 53.53755 10.80712 13617 ft 315 kts 323°
2026-05-08 21:38 53.55522 10.78516 13219 ft 312 kts 323°
2026-05-08 21:38 53.57264 10.76350 12826 ft 311 kts 323°
2026-05-08 21:38 53.58995 10.74192 12427 ft 309 kts 323°
2026-05-08 21:38 53.60716 10.72048 12031 ft 307 kts 323°
2026-05-08 21:39 53.62430 10.69911 11635 ft 306 kts 323°
2026-05-08 21:39 53.64126 10.67768 11240 ft 304 kts 320°
2026-05-08 21:39 53.65688 10.65330 10809 ft 308 kts 316°
2026-05-08 21:39 53.67240 10.62835 10417 ft 307 kts 316°
2026-05-08 21:40 53.68756 10.60391 10257 ft 295 kts 316°
2026-05-08 21:40 53.70212 10.58039 9915 ft 283 kts 316°
2026-05-08 21:40 53.71602 10.55791 9716 ft 273 kts 316°
2026-05-08 21:41 53.74276 10.51476 9293 ft 259 kts 317°
2026-05-08 21:41 53.75564 10.49395 9066 ft 254 kts 317°
2026-05-08 21:41 53.76834 10.47338 8867 ft 252 kts 317°
2026-05-08 21:41 53.78099 10.45290 8661 ft 252 kts 317°
2026-05-08 21:42 53.79364 10.43247 8451 ft 251 kts 317°
2026-05-08 21:42 53.80624 10.41206 8248 ft 250 kts 317°
2026-05-08 21:42 53.81880 10.39166 8043 ft 250 kts 317°
2026-05-08 21:42 53.83133 10.37130 7839 ft 249 kts 317°
2026-05-08 21:43 53.84385 10.35093 7637 ft 249 kts 317°
2026-05-08 21:43 53.85631 10.33069 7433 ft 248 kts 317°
2026-05-08 21:43 53.86872 10.31050 7244 ft 245 kts 317°
2026-05-08 21:43 53.88075 10.29061 7038 ft 239 kts 314°
2026-05-08 21:44 53.88965 10.26728 6840 ft 234 kts 294°
2026-05-08 21:44 53.89367 10.24093 6641 ft 230 kts 275°
2026-05-08 21:44 53.89346 10.21419 6423 ft 225 kts 267°
2026-05-08 21:44 53.89280 10.18801 6235 ft 220 kts 267°
2026-05-08 21:45 53.89218 10.16254 6087 ft 214 kts 267°
2026-05-08 21:45 53.89155 10.13738 5893 ft 212 kts 267°
2026-05-08 21:45 53.89092 10.11245 5711 ft 211 kts 266°
2026-05-08 21:45 53.89027 10.08764 5532 ft 210 kts 266°
2026-05-08 21:46 53.88964 10.06304 5337 ft 208 kts 266°
2026-05-08 21:46 53.88901 10.03859 5159 ft 206 kts 266°
2026-05-08 21:46 53.88839 10.01514 4979 ft 198 kts 265°
2026-05-08 21:46 53.88779 9.99177 4786 ft 195 kts 265°
2026-05-08 21:47 53.88718 9.96909 4602 ft 195 kts 265°
2026-05-08 21:47 53.88655 9.94623 4417 ft 194 kts 265°
2026-05-08 21:47 53.88594 9.92337 4235 ft 194 kts 265°
2026-05-08 21:47 53.88324 9.90108 4054 ft 190 kts 242°
2026-05-08 21:48 53.87513 9.88394 3873 ft 186 kts 218°
2026-05-08 21:48 53.86543 9.86992 3693 ft 184 kts 218°
2026-05-08 21:48 53.85591 9.85601 3511 ft 178 kts 218°
2026-05-08 21:48 53.84658 9.84251 3330 ft 175 kts 216°
2026-05-08 21:49 53.83585 9.83341 3153 ft 172 kts 193°
2026-05-08 21:49 53.82410 9.83174 3041 ft 169 kts 172°
2026-05-08 21:49 53.81295 9.83736 3015 ft 167 kts 152°
2026-05-08 21:49 53.80261 9.84639 3011 ft 167 kts 151°
2026-05-08 21:50 53.79226 9.85541 3008 ft 167 kts 152°
2026-05-08 21:50 53.78191 9.86444 2880 ft 168 kts 151°
2026-05-08 21:50 53.77168 9.87335 2695 ft 163 kts 151°
2026-05-08 21:50 53.76183 9.88192 2485 ft 154 kts 151°
2026-05-08 21:51 53.75261 9.88994 2279 ft 144 kts 151°
2026-05-08 21:51 53.74393 9.89750 2101 ft 138 kts 151°
2026-05-08 21:51 53.73550 9.90483 1913 ft 135 kts 150°
2026-05-08 21:51 53.72743 9.91184 1729 ft 127 kts 149°
2026-05-08 21:52 53.71964 9.91861 1554 ft 124 kts 149°
2026-05-08 21:52 53.71197 9.92527 1387 ft 124 kts 148°
2026-05-08 21:52 53.70433 9.93190 1220 ft 123 kts 148°
2026-05-08 21:52 53.69671 9.93851 1046 ft 123 kts 147°
2026-05-08 21:53 53.68903 9.94518 867 ft 125 kts 148°
2026-05-08 21:53 53.68126 9.95191 694 ft 126 kts 148°
2026-05-08 21:53 53.67605 9.95640 587 ft 128 kts 147°
2026-05-08 21:53 53.66810 9.96332 411 ft 129 kts 147°
2026-05-08 21:54 53.66006 9.97026 247 ft 130 kts 147°
2026-05-08 21:54 53.65204 9.97722 73 ft 129 kts 148°
2026-05-08 21:54 53.64508 9.98326 52 ft 94 kts 153°
2026-05-08 21:54 53.64034 9.98731 52 ft 63 kts 153°
2026-05-08 21:55 53.63671 9.99052 45 ft 55 kts 153°
2026-05-08 21:55 53.63346 9.99328 46 ft 49 kts 153°
2026-05-08 21:55 53.63056 9.99581 46 ft 43 kts 153°
2026-05-08 21:56 53.62873 9.99838 44 ft 11 kts 60°
2026-05-08 21:56 53.62889 9.99889 47 ft 4 kts 63°
2026-05-08 21:56 53.62900 9.99927 45 ft 3 kts 63°
2026-05-08 21:56 53.62910 9.99958 48 ft 3 kts 63°
2026-05-08 21:57 53.62920 9.99991 47 ft 4 kts 63°
2026-05-08 21:57 53.62943 10.00044 48 ft 8 kts 44°
2026-05-08 21:57 53.62998 10.00107 46 ft 12 kts 33°
2026-05-08 21:57 53.63069 10.00182 48 ft 8 kts 28°
2026-05-08 21:58 53.63104 10.00238 48 ft 8 kts 66°
2026-05-08 21:58 53.63110 10.00321 48 ft 2 kts 87°
2026-05-08 21:58 53.63111 10.00352 48 ft 3 kts 87°
2026-05-08 21:58 53.63112 10.00375 46 ft 1 kts 87°
2026-05-08 21:59 53.63112 10.00377 46 ft 0 kts 87°